World > North America > United States > Texas

Hourly Tavener, TX Regional Weather

Feedback E-mail the Weather

Quick WX

Tavener, TX Weather Maps

°F °C°F °C
Tavener Weather Map
UTC Time: 7/4/2022, 03:57
Your Time:

Tavener, TX Regional Weather

Expires:202207040400;;643832
ASUS44 KSJT 040315
RWRSJT
WEST CENTRAL TEXAS REGIONAL WEATHER ROUNDUP
NATIONAL WEATHER SERVICE SAN ANGELO TX
1000 PM CDT SUN JUL 03 2022

NOTE: "FAIR" INDICATES FEW OR NO CLOUDS BELOW 12,000 FEET WITH NO
SIGNIFICANT WEATHER AND/OR OBSTRUCTIONS TO VISIBILITY.


TXZ163-177-195>197-199-213-226-237-040400-
SOUTHEAST TEXAS
  
CITY           SKY/WX    TMP DP  RH WIND       PRES   REMARKS
COLLEGE STN    CLEAR     91  69  48 S14G24    29.98R                  
CALDWELL       CLEAR     88  68  51 S10G23    29.99R                  
CROCKETT       PTCLDY    86  73  66 SE7       29.99R                  
BRENHAM        CLEAR     88  70  55 S9G16     30.01R                  
HUNTSVILLE     CLEAR     90  73  57 S12G24    30.00R                  
CONROE         CLEAR     84  74  71 MISG      30.02R                  
HOUSTON BUSH   CLEAR     85  73  67 S9        30.02R                  
HOUSTON HOBBY  PTCLDY    84  75  74 S9        30.02R                  
PERLAND        CLEAR     83  75  77 S3        30.04R                  
WHARTON        CLEAR     80  73  81 SE6       30.03R                  
$$


SKY/WX - Weather  TMP - Temperature  DP - Dew Point  RH - Humidity
WIND - Wind Direction/Speed PRES - Barometric Pressure VSB - Visibility
WCI - Wind Chill Index E13G22 Wind - East Wind 13 mph/Gusts of 22 mph

Trending Headlines

Tavener Radar Loop



Tavener Quick Facts


National Two Day Weather Forecast


E-mail the Tavener Weather Forecast

Voice your opinion or tell us about page issues...